Probability
3 0 0 0 0 0 0 0 0 0 3 3 6 6 3 3 3 3 13 23 26 26 23 26 26 35 48 58 68 71 71 77 81 77 71 68 65 65 58 58 58 58 61 68
0 0 0 0 0 0 0 0 0 0 3 3 6 10 6 3 6 13 16 23 26 29 32 39 39 35 52 61 77 84 81 77 81 84 71 68 68 65 58 55 58 65 68 61
0 0 0 0 0 0 0 0 0 0 3 3 3 6 6 3 6 10 13 19 23 29 26 29 45 52 52 61 74 55 77 81 84 77 65 65 71 65 58 58 61 55 58 65
0 0 0 0 0 0 0 0 0 0 0 3 3 0 19 13 3 10 10 13 19 26 32 39 42 55 52 55 68 81 81 81 81 77 61 65 58 58 58 58 58 58 58 55
0 0 0 0 0 0 0 0 0 0 3 3 0 0 10 10 10 19 16 13 23 26 42 42 55 55 52 52 58 68 71 81 81 77 71 65 55 55 61 68 61 61 58 58
0 0 0 0 0 0 0 0 0 3 3 3 0 0 10 10 13 16 13 13 29 39 48 52 52 65 58 52 55 58 71 74 77 74 74 68 61 55 61 65 58 55 55 52
0 0 0 0 0 0 0 0 0 0 0 0 0 0 10 13 13 13 19 16 26 32 35 42 55 61 61 48 48 61 74 74 71 74 74 74 65 61 58 58 52 52 42 48
0 0 0 0 0 0 0 0 0 0 0 0 0 3 3 3 3 16 16 19 23 26 32 35 48 58 52 55 55 61 71 74 71 74 77 74 65 58 55 58 55 55 48 39
0 0 0 0 0 0 0 0 0 0 0 0 0 6 13 6 6 26 23 26 35 32 35 48 42 39 45 48 61 58 61 71 71 71 71 68 61 61 61 61 61 58 52 42
0 0 0 0 0 0 0 0 0 0 10 0 0 10 16 16 19 19 26 32 32 32 32 42 52 52 52 52 52 55 61 68 71 71 61 58 65 68 61 61 65 61 55 55
0 0 0 0 0 0 0 0 0 0 3 0 0 6 13 16 13 16 19 23 26 26 35 42 52 52 52 52 45 58 61 68 68 61 68 61 61 58 58 52 55 52 55 55
0 0 0 0 0 0 0 0 0 0 10 3 3 3 10 13 13 19 13 16 19 29 32 35 42 45 45 45 45 45 52 52 55 65 58 52 52 52 45 45 42 48 52 52
0 0 0 0 0 0 0 0 0 0 3 0 6 3 10 13 16 13 19 23 29 29 32 45 48 45 48 42 48 48 48 32 39 48 48 55 55 52 42 42 48 52 48 42
0 0 0 0 0 0 0 0 0 0 0 0 3 6 16 16 16 13 19 26 32 35 45 48 58 58 55 61 58 52 42 35 45 48 42 55 52 55 55 52 52 48 48 48
0 0 0 0 0 0 0 0 0 0 0 0 0 13 13 16 16 16 19 26 26 32 42 52 61 55 55 52 58 52 48 48 48 48 48 48 45 52 52 52 52 48 45 39
0 0 0 0 0 0 0 3 0 0 0 3 6 13 16 16 16 16 23 23 32 39 39 45 45 58 58 55 58 48 48 52 52 55 45 48 45 42 48 48 39 42 45 42
0 3 3 0 0 0 3 3 0 0 0 0 6 16 13 19 23 26 26 26 29 35 35 42 45 52 58 55 55 48 52 48 52 52 45 48 45 35 39 35 39 42 42 39
0 16 3 0 3 0 0 0 0 0 3 6 10 10 10 16 19 23 26 26 29 29 32 45 42 45 48 42 42 45 42 45 45 45 39 39 39 35 35 39 45 48 42 39
0 10 3 0 0 0 3 3 0 0 3 13 10 10 10 13 16 16 19 23 29 29 32 42 42 45 45 42 39 45 39 32 39 39 39 39 39 35 35 42 45 48 48 39
3 10 3 3 0 0 3 0 0 0 3 13 10 13 6 13 16 19 26 29 26 35 35 39 39 45 45 45 39 35 32 35 35 35 35 35 42 39 39 45 48 42 45 35
0 3 0 0 0 0 0 0 0 0 6 13 3 10 16 23 26 29 32 35 39 39 35 42 39 45 45 42 39 39 35 35 32 32 35 35 39 42 39 48 45 45 35 23
0 0 3 0 0 0 0 0 0 29 29 16 13 0 10 23 32 29 29 32 35 42 42 42 42 48 48 42 42 42 39 39 39 35 35 39 39 32 23 29 39 39 42 32
0 3 3 3 0 13 0 0 3 6 10 13 3 16 19 19 23 32 29 29 35 39 45 42 39 45 39 39 39 35 35 35 39 39 39 35 39 29 26 23 26 32 32 10
3 0 3 10 3 6 3 0 0 3 6 6 13 16 16 23 29 32 35 29 32 32 35 39 39 39 35 35 32 32 42 42 35 32 29 26 26 19 23 26 16 19 19 16
3 0 6 6 6 3 0 0 0 6 10 13 13 13 16 23 29 32 39 29 32 35 35 39 42 42 35 42 35 35 39 39 32 26 23 19 19 19 29 19 16 13 19 13
3 0 3 6 10 6 3 0 6 6 10 10 10 10 13 16 19 26 32 32 35 32 35 35 32 32 35 39 42 39 42 39 35 23 19 13 16 19 23 23 13 3 3 0
Height
5916 5919 5919 5920 5922 5923 5924 5925 5925 5925 5924 5923 5922 5920 5919 5918 5916 5914 5912 5910 5908 5906 5904 5903 5902 5901 5900 5899 5898 5897 5896 5896 5895 5895 5894 5894 5893 5892 5891 5891 5890 5889 5889 5888
5916 5917 5919 5919 5921 5922 5923 5924 5925 5924 5923 5923 5922 5921 5919 5917 5916 5914 5912 5910 5909 5907 5905 5903 5902 5901 5900 5899 5898 5897 5896 5895 5894 5894 5893 5893 5892 5891 5890 5890 5889 5888 5887 5886
5914 5917 5917 5918 5920 5921 5922 5923 5923 5923 5922 5922 5921 5919 5917 5916 5915 5914 5912 5910 5908 5907 5905 5904 5902 5901 5900 5898 5897 5896 5896 5895 5894 5893 5892 5891 5890 5889 5889 5888 5887 5886 5885 5884
5912 5914 5915 5917 5919 5919 5920 5921 5921 5921 5921 5920 5920 5917 5916 5913 5913 5912 5911 5909 5908 5906 5905 5903 5902 5900 5899 5897 5896 5895 5895 5894 5893 5892 5891 5890 5889 5888 5887 5885 5884 5883 5882 5881
5909 5911 5913 5914 5916 5917 5917 5919 5919 5919 5918 5917 5917 5916 5914 5911 5910 5910 5909 5908 5907 5905 5904 5902 5901 5899 5898 5896 5895 5893 5892 5892 5891 5890 5889 5888 5887 5886 5884 5883 5881 5880 5879 5878
5906 5908 5910 5912 5913 5915 5916 5916 5916 5916 5916 5914 5914 5913 5912 5909 5908 5908 5907 5906 5905 5903 5902 5900 5898 5897 5897 5895 5894 5892 5891 5890 5889 5888 5887 5885 5884 5883 5881 5880 5879 5877 5876 5875
5903 5906 5907 5909 5910 5912 5913 5914 5914 5914 5913 5912 5912 5911 5910 5908 5907 5906 5904 5903 5903 5902 5900 5898 5896 5896 5895 5894 5892 5890 5890 5888 5887 5886 5884 5883 5882 5880 5879 5877 5876 5874 5873 5871
5900 5902 5904 5905 5907 5909 5910 5911 5912 5912 5911 5911 5909 5908 5907 5905 5905 5904 5903 5902 5901 5899 5898 5896 5894 5893 5892 5891 5890 5889 5887 5886 5885 5883 5881 5880 5879 5877 5875 5874 5872 5870 5869 5867
5897 5899 5901 5902 5904 5905 5906 5908 5909 5909 5909 5909 5907 5905 5904 5903 5903 5902 5902 5901 5899 5897 5895 5893 5892 5890 5889 5888 5887 5885 5884 5883 5882 5880 5878 5877 5875 5873 5872 5870 5869 5867 5865 5863
5892 5894 5896 5898 5899 5901 5903 5904 5906 5906 5905 5905 5904 5902 5901 5898 5898 5898 5898 5897 5896 5894 5892 5890 5888 5887 5886 5885 5883 5881 5879 5879 5878 5877 5875 5874 5872 5870 5869 5867 5865 5863 5861 5860
5888 5890 5892 5894 5894 5896 5897 5899 5900 5901 5901 5902 5901 5900 5896 5895 5895 5894 5894 5892 5891 5890 5888 5886 5884 5883 5882 5881 5879 5877 5876 5875 5874 5873 5872 5870 5868 5866 5865 5863 5862 5859 5857 5855
5884 5886 5887 5888 5890 5891 5892 5894 5896 5897 5896 5896 5896 5896 5892 5891 5891 5889 5888 5888 5887 5886 5884 5882 5881 5880 5878 5877 5876 5874 5873 5872 5870 5869 5867 5865 5864 5862 5860 5859 5857 5855 5852 5850
5878 5881 5882 5884 5886 5886 5887 5888 5890 5892 5892 5891 5891 5892 5888 5886 5885 5884 5883 5883 5882 5881 5879 5878 5876 5874 5874 5873 5872 5871 5869 5868 5866 5864 5862 5861 5859 5857 5855 5853 5851 5849 5847 5845
5872 5874 5877 5879 5879 5880 5881 5883 5884 5885 5886 5885 5886 5886 5883 5881 5880 5879 5878 5877 5877 5876 5875 5874 5871 5869 5869 5869 5867 5866 5864 5863 5861 5859 5857 5856 5854 5852 5850 5848 5846 5843 5841 5839
5866 5869 5870 5872 5873 5875 5876 5877 5879 5879 5879 5880 5881 5879 5878 5876 5875 5874 5872 5872 5871 5870 5869 5868 5867 5865 5864 5863 5862 5861 5859 5857 5856 5854 5852 5850 5848 5846 5844 5842 5839 5837 5835 5832
5860 5862 5864 5866 5868 5869 5870 5872 5873 5874 5874 5874 5875 5873 5871 5869 5868 5868 5867 5867 5866 5865 5864 5863 5861 5861 5859 5858 5857 5855 5853 5852 5850 5848 5846 5844 5842 5840 5838 5835 5833 5830 5828 5825
5854 5856 5857 5859 5861 5863 5865 5867 5868 5868 5869 5869 5869 5868 5866 5865 5863 5862 5861 5861 5861 5859 5858 5857 5855 5854 5853 5852 5851 5849 5847 5846 5844 5843 5840 5838 5836 5833 5831 5828 5826 5823 5821 5818
5847 5849 5851 5853 5856 5856 5861 5861 5861 5862 5862 5863 5862 5861 5860 5859 5858 5856 5855 5855 5855 5854 5852 5850 5849 5847 5847 5846 5844 5843 5841 5839 5838 5836 5834 5831 5829 5826 5824 5821 5818 5816 5813 5810
5840 5842 5844 5847 5848 5850 5853 5854 5854 5855 5854 5854 5855 5854 5853 5852 5852 5849 5848 5849 5848 5847 5845 5844 5842 5840 5839 5838 5837 5836 5834 5832 5830 5828 5826 5823 5821 5818 5816 5813 5810 5808 5805 5801
5834 5836 5838 5840 5841 5844 5846 5847 5847 5849 5847 5847 5847 5847 5846 5846 5845 5842 5841 5841 5841 5840 5838 5837 5835 5833 5832 5831 5830 5828 5826 5825 5823 5820 5818 5815 5813 5810 5807 5805 5802 5799 5796 5793
5828 5830 5831 5833 5834 5838 5838 5838 5840 5841 5839 5839 5839 5839 5838 5837 5837 5835 5834 5834 5833 5832 5831 5829 5828 5826 5825 5824 5822 5820 5819 5817 5815 5812 5810 5807 5805 5802 5799 5796 5793 5791 5788 5785
5822 5823 5824 5826 5828 5832 5829 5830 5831 5832 5831 5831 5831 5831 5830 5829 5829 5829 5828 5826 5826 5825 5823 5822 5820 5819 5817 5816 5814 5812 5811 5808 5806 5804 5801 5799 5796 5793 5791 5788 5785 5782 5779 5776
5815 5816 5816 5818 5821 5821 5820 5821 5821 5822 5823 5823 5824 5823 5823 5822 5821 5821 5820 5819 5818 5817 5815 5814 5812 5811 5809 5807 5806 5804 5802 5799 5797 5795 5793 5790 5787 5785 5782 5779 5776 5773 5770 5767
5805 5806 5807 5809 5811 5812 5812 5812 5813 5813 5814 5815 5814 5814 5814 5813 5813 5812 5812 5811 5810 5809 5807 5806 5804 5802 5801 5799 5797 5795 5793 5790 5788 5786 5784 5781 5779 5776 5773 5770 5767 5764 5761 5758
5796 5797 5800 5802 5802 5803 5804 5804 5804 5805 5806 5806 5805 5805 5805 5805 5804 5804 5803 5802 5801 5800 5798 5797 5795 5793 5792 5790 5788 5786 5784 5782 5779 5777 5775 5772 5770 5767 5765 5761 5758 5755 5752 5748
5791 5791 5792 5793 5793 5795 5795 5796 5796 5797 5798 5798 5797 5798 5797 5797 5796 5795 5795 5793 5792 5791 5790 5788 5786 5785 5783 5781 5779 5777 5775 5773 5771 5769 5766 5764 5761 5759 5756 5753 5750 5746 5743 5740
Wind_Speed
8 7 7 6 5 5 3 4 4 5 6 6 8 8 8 9 10 12 12 12 12 11 11 10 9 9 8 8 7 7 7 8 8 8 8 8 9 9 9 10 10 10 10 11
11 9 8 7 5 5 5 6 6 7 8 7 8 9 10 10 11 11 11 11 11 11 11 10 10 10 9 8 8 8 9 9 9 10 10 11 11 11 10 11 11 11 11 11
12 9 9 8 8 8 7 6 8 8 7 8 10 11 9 10 11 12 12 11 12 12 12 11 11 11 10 9 9 9 10 11 10 11 12 12 12 12 12 12 12 12 12 12
13 12 11 10 11 10 9 8 9 9 9 9 10 12 12 12 11 12 12 12 12 13 13 13 12 12 12 11 10 10 11 12 12 12 13 13 13 13 14 13 13 13 13 13
14 14 14 13 12 11 10 10 10 9 11 12 12 13 16 14 13 12 12 13 13 14 14 14 13 12 13 12 11 11 12 13 13 14 14 14 14 15 15 15 15 15 15 14
16 15 14 14 13 12 11 10 11 10 11 14 11 13 17 16 15 14 13 13 13 15 16 15 13 12 13 13 14 13 14 14 15 16 16 15 16 16 16 16 16 16 16 16
16 16 16 15 14 13 12 11 12 13 13 13 13 15 15 14 15 16 14 16 16 17 17 17 15 14 14 14 15 15 15 16 17 17 17 17 17 17 17 17 17 17 17 17
17 17 17 17 15 13 14 14 14 14 14 14 14 16 15 14 14 15 15 17 18 18 18 18 17 17 16 16 16 17 17 17 18 18 18 19 19 18 18 18 18 18 18 18
18 18 17 17 16 16 17 16 15 16 16 15 18 18 17 16 17 16 17 18 19 19 19 19 19 19 18 18 18 19 18 18 19 19 20 20 19 19 19 18 19 19 19 20
19 19 17 16 17 17 18 17 16 16 17 16 17 18 18 17 16 19 19 19 20 19 18 18 18 18 19 19 19 20 19 19 19 20 20 20 20 20 20 20 19 20 20 21
20 19 19 19 20 19 18 17 18 18 18 18 19 21 20 17 17 19 20 19 20 21 19 19 19 19 19 20 21 20 20 20 21 21 21 22 21 21 21 21 21 22 22 23
21 19 21 21 21 21 21 19 19 19 20 20 21 24 23 21 21 20 19 20 21 22 21 22 21 20 20 20 21 22 22 22 22 22 23 23 24 23 22 22 23 23 24 24
22 22 21 21 21 21 21 19 20 20 21 21 21 23 23 23 23 22 21 21 23 23 23 23 22 21 21 22 22 23 24 23 24 24 24 25 24 23 24 24 24 25 26 26
24 23 22 21 20 18 18 18 18 20 21 22 21 23 24 25 26 24 23 22 22 24 24 24 23 22 23 23 23 24 25 25 25 26 26 27 25 24 25 25 26 27 27 27
24 24 24 24 22 20 19 18 19 21 21 21 22 24 26 27 28 27 24 24 24 24 24 25 25 25 25 25 24 25 26 26 27 27 28 27 27 27 27 27 28 29 29 29
26 26 26 26 24 22 21 20 21 22 22 21 21 23 26 25 26 26 26 27 26 25 25 27 27 26 26 26 25 26 26 27 27 27 27 28 28 29 29 29 30 30 30 31
25 26 26 25 22 22 22 20 20 20 20 21 21 24 27 28 29 30 30 29 28 27 28 28 27 27 27 26 26 26 27 27 27 28 29 29 30 31 31 31 32 31 32 33
26 28 27 25 25 25 22 20 22 22 21 22 24 25 28 28 29 31 32 30 29 28 28 29 28 28 28 28 28 28 28 29 29 30 31 31 32 32 32 33 33 33 33 33
27 28 28 26 26 25 24 23 23 22 23 25 26 27 28 27 28 30 31 29 28 29 29 29 29 29 30 30 30 31 31 31 31 32 32 33 33 33 33 33 33 33 33 33
24 26 26 26 26 24 25 24 24 24 26 27 27 28 29 28 29 30 30 30 29 29 30 30 30 30 30 30 31 31 32 32 33 33 34 34 34 34 34 34 34 34 34 35
24 25 26 26 26 24 26 27 26 26 26 27 27 28 29 29 29 30 31 31 31 31 31 32 31 31 31 31 31 31 32 33 33 34 34 34 34 34 34 33 34 34 35 35
25 24 24 25 24 25 27 28 29 30 29 29 28 29 30 30 31 32 33 32 31 31 32 32 32 32 32 32 32 33 33 33 33 34 34 34 34 34 34 34 35 35 35 36
25 25 25 26 26 28 29 31 30 30 31 31 31 31 31 32 33 34 34 33 33 32 32 32 33 33 33 33 33 33 33 33 34 34 34 34 34 34 34 34 34 34 35 36
27 27 27 27 28 30 31 31 31 31 31 31 31 33 33 33 33 34 34 33 33 32 32 33 33 33 32 32 32 32 33 33 33 33 33 33 33 34 34 34 34 34 35 35
27 27 29 30 30 31 32 32 31 30 29 30 31 31 32 32 33 32 33 33 33 33 33 33 34 32 32 32 32 32 32 33 33 33 33 33 33 33 33 33 34 34 34 35
28 30 32 32 33 31 32 31 31 31 31 31 30 31 32 33 33 33 33 33 34 34 33 33 32 32 32 32 32 32 33 33 32 33 32 32 32 32 32 32 33 33 34 34
Wind_Direction
205 214 216 224 243 274 277 287 298 299 315 324 322 325 330 332 337 350 357 359 360 357 358 353 350 350 350 347 344 342 342 341 340 338 333 327 324 320 313 310 308 302 301 303
215 222 227 222 238 262 264 275 285 273 294 304 305 307 312 323 328 336 340 346 349 353 353 349 347 344 343 339 334 335 336 336 338 337 333 328 324 321 319 315 310 305 302 302
223 220 233 241 243 243 251 266 282 285 292 294 300 294 299 313 323 322 325 333 340 346 343 341 342 338 333 329 327 329 332 331 330 332 329 327 324 321 317 316 314 306 303 302
222 225 233 233 239 242 249 255 266 266 265 271 274 279 288 289 305 316 322 327 331 335 335 333 332 331 327 325 325 323 324 328 327 325 324 323 323 321 320 317 317 311 304 303
225 230 234 234 238 243 245 252 259 262 262 263 267 279 288 293 300 310 316 320 323 325 326 327 324 325 323 321 320 321 323 325 323 321 319 319 317 319 319 317 314 311 308 306
233 238 243 242 243 247 253 258 259 264 271 268 270 274 284 289 305 305 307 311 314 315 318 319 319 322 321 318 315 315 320 319 316 315 314 316 316 315 317 316 313 310 307 306
240 238 241 244 243 244 248 255 265 268 273 283 287 278 273 288 300 303 305 312 313 312 311 313 313 317 317 315 312 312 315 314 313 312 312 312 312 311 313 312 312 309 306 306
241 241 239 242 246 245 249 249 255 268 272 280 277 272 277 286 292 300 303 303 307 309 308 308 304 308 311 310 308 309 309 309 310 311 310 308 307 307 308 308 310 309 306 306
237 243 243 242 246 246 246 248 253 268 269 270 274 278 275 279 286 287 291 296 301 305 306 302 299 302 305 307 306 304 306 307 308 308 309 310 308 305 305 304 305 308 306 305
239 244 244 246 248 251 246 246 249 254 264 268 270 273 280 283 288 293 291 292 296 299 297 297 299 302 302 302 303 301 300 303 304 306 306 307 308 306 306 304 302 302 304 304
243 246 246 243 243 243 242 241 242 247 251 258 268 272 279 278 281 284 289 289 289 294 295 297 298 299 301 300 301 302 304 305 305 303 304 304 306 305 304 303 303 303 302 302
239 241 247 247 246 243 244 240 239 248 251 253 261 269 274 278 279 279 282 285 286 291 293 296 295 296 299 299 300 302 302 303 302 302 302 304 306 304 304 305 304 303 303 302
232 235 243 249 247 245 244 242 244 249 255 255 260 271 274 276 278 278 279 281 282 288 293 292 290 295 297 296 296 297 299 300 299 299 300 303 304 303 303 303 303 303 303 301
234 237 239 245 251 249 250 248 249 249 254 259 259 266 269 273 275 277 277 281 283 288 290 289 290 296 298 296 295 296 297 298 298 298 298 301 302 302 302 302 302 302 302 300
238 239 241 242 246 246 251 254 253 254 254 259 260 263 266 272 276 279 280 283 286 288 289 288 288 292 295 294 295 295 295 296 297 297 297 298 299 300 300 300 300 301 300 299
240 241 243 245 244 245 250 253 256 257 258 258 261 265 271 274 276 276 278 283 287 289 288 288 288 289 291 291 292 293 293 294 296 297 297 296 296 297 298 298 299 299 299 298
239 241 242 245 244 247 250 251 255 258 259 260 260 265 271 272 275 276 276 280 284 286 288 287 286 285 286 289 290 291 291 293 294 295 296 296 296 296 297 297 297 297 298 298
242 243 247 249 247 247 250 253 252 254 254 257 259 262 267 267 270 273 276 279 283 285 286 286 286 285 286 287 288 290 290 292 293 294 295 296 296 296 297 297 297 297 298 299
242 243 246 246 248 251 254 257 258 257 254 254 258 262 267 268 273 274 275 279 282 284 285 287 287 286 286 287 288 288 289 290 292 293 294 296 296 296 296 297 298 298 298 299
247 249 249 249 249 251 256 258 258 261 261 263 264 266 268 268 270 273 276 280 284 286 287 288 287 285 285 287 289 289 289 291 291 292 293 295 296 296 297 297 298 298 299 299
249 250 250 250 250 253 257 258 258 258 259 263 266 268 268 268 270 274 277 280 284 285 285 286 287 286 285 287 289 289 290 290 290 291 292 293 295 296 296 297 297 298 298 299
248 248 250 250 250 251 254 257 257 259 261 264 268 269 268 270 271 273 277 280 282 283 285 286 286 286 287 287 288 289 289 290 289 290 291 293 294 294 295 296 297 298 299 299
248 246 246 245 246 249 252 254 257 260 261 264 267 267 268 271 272 273 276 280 282 282 283 285 285 287 287 287 289 290 291 290 289 289 291 291 293 294 295 296 297 298 298 299
247 245 245 245 245 250 255 257 259 261 263 265 266 267 269 271 273 275 277 279 281 281 282 284 286 287 287 288 289 290 291 291 291 291 292 292 293 294 295 296 297 298 298 299
246 249 248 248 248 250 255 258 261 263 265 267 267 267 268 271 272 274 278 279 280 282 285 285 286 287 288 287 287 288 290 290 291 292 292 293 294 295 295 296 297 297 299 300
246 250 252 253 254 255 257 259 260 263 266 267 268 269 270 272 273 275 277 279 280 282 283 283 286 287 287 286 287 288 290 290 290 292 293 294 294 295 296 298 299 299 300 300